[[{"header":{"parameterUnit":"m.s-1","parameterCategory":2,"la1":30.2991,"la2":30.254,"lo1":-89.0895,"lo2":-89.0444,"dy":0.0017,"dx":0.0017,"nx":28,"ny":28,"refTime":"2024-03-18T21:00:00:Z","depth":"0","parameterNumber":2,"parameterNumberName":"U-component_of_CURRENTS"},"data":[0,0,0,0,0,0,0,0,0,0,0,0,0,0,0,0,0,0,0,0,0,0,0,0,0,0,0,0,0,0,0,0,0,0,0,0,0,0,0,0,0,0,0,0,0,0,0,0,0,0,0,0,0,0,0,0,0,0,0.2956,0.2956,0,0.2962,0.2961,0.2961,0.2991,0.2992,0.2994,0.2995,0.2969,0.2968,0.2966,0,0,0,0,0,0,0,0,0,0,0,0,0,0.2888,0.2889,0.2956,0.2956,0.2957,0.2962,0.2961,0.2961,0.2991,0.2993,0.2994,0.2995,0.297,0.2968,0.2966,0,0,0,0,0,0,0,0,0,0,0,0,0,0.2903,0.2889,0.2956,0.2976,0.2979,0.2962,0.2961,0.2961,0.2991,0.2993,0.2994,0.2996,0.2971,0.2968,0.2965,0.2912,0,0,0.2957,0.2956,0,0,0,0,0,0,0,0,0.2902,0.2905,0.2973,0.2975,0.2978,0.2982,0.2928,0.2945,0.299,0.298,0.2995,0.2997,0.2973,0.297,0.296,0.2911,0.291,0.2957,0.2955,0.2954,0.2953,0,0,0,0,0,0,0,0.2901,0.2904,0.2953,0.2973,0.2976,0.2958,0.2962,0.2931,0.2962,0.2981,0.2985,0.2994,0.2974,0.2963,0.296,0.291,0.2957,0.2955,0.2953,0.2952,0.2916,0.2917,0,0,0,0,0,0,0.2914,0.2903,0.2953,0.2953,0.295,0.2958,0.2963,0.2975,0.2963,0.2965,0.2992,0.2995,0.2966,0.2963,0.2959,0.2968,0.2954,0.2952,0.295,0.2915,0.2916,0.2917,0,0,0,0,0,0,0.2912,0.2918,0.2952,0.2932,0.2936,0.2959,0.2971,0.2974,0.2971,0.2972,0.2973,0.2989,0.2968,0.2963,0.2943,0.2965,0.295,0.2948,0.2915,0.2916,0.2917,0.2939,0,0,0,0,0,0,0.291,0.2917,0.2917,0.2934,0.2938,0.2941,0.297,0.2973,0.2976,0.298,0.2969,0.2968,0.2969,0.2947,0.294,0.2961,0.2946,0.2914,0.2915,0.2916,0.2938,0.2941,0.2944,0,0,0,0,0,0.2907,0.2905,0.2917,0.2923,0.2942,0.294,0.2939,0.2957,0.2974,0.2963,0.2967,0.2969,0.2952,0.2944,0.2936,0.2957,0.2913,0.2915,0.2916,0.2936,0.294,0.2944,0,0,0,0,0,0,0.2871,0.2908,0.2923,0.2931,0.2936,0.2948,0.2941,0.2952,0.2944,0.295,0.2953,0.2952,0.2956,0.2942,0.2933,0.2954,0.2941,0.2941,0.296,0.2963,0.2966,0.2989,0.2943,0,0,0,0,0,0.2864,0.2874,0.29,0.2902,0.2908,0.2921,0.2921,0.2933,0.2936,0.2935,0.2934,0.2939,0.2952,0.2945,0.2946,0.2926,0.2943,0.2943,0.2946,0.2949,0.2964,0.2999,0.3007,0.2922,0.2922,0.2922,0,0,0.2849,0.2872,0.2876,0.2894,0.2901,0.2908,0.2924,0.2924,0.2937,0.293,0.2935,0.2943,0.2951,0.2957,0.2957,0.2946,0.2982,0.2951,0.2953,0.2967,0.3002,0.301,0.3018,0.2923,0.2923,0.2923,0,0,0.2822,0.2846,0.2844,0.2854,0.287,0.2886,0.2888,0.2901,0.2914,0.2909,0.2936,0.2954,0.2938,0.2969,0.298,0.2991,0.3003,0.2994,0.3016,0.305,0.3057,0.3064,0.3096,0.3105,0.2988,0.2988,0.2988,0,0.2801,0.2817,0.2837,0.2841,0.2859,0.2881,0.2887,0.2897,0.2902,0.2922,0.2915,0.2956,0.2955,0.3001,0.3018,0.3001,0.3019,0.2999,0.3055,0.3062,0.3069,0.3099,0.3109,0.2989,0.2989,0.2989,0.2989,0,0.2781,0.2794,0.2793,0.2822,0.2833,0.284,0.2874,0.2885,0.2907,0.293,0.297,0.2975,0.3009,0.3016,0.3018,0.3076,0.3074,0.306,0.3046,0.3079,0.3108,0.3119,0.2991,0.299,0.299,0.299,0,0,0.2744,0.2775,0.2777,0.2792,0.2833,0.284,0.2873,0.2915,0.2951,0.2961,0.301,0.3042,0.3061,0.3077,0.3089,0.3115,0.3175,0.3108,0.3109,0.3141,0.3254,0.3267,0.3279,0.317,0.3171,0.3173,0.3256,0,0.2728,0.2738,0.2763,0.2781,0.2797,0.2842,0.2875,0.2917,0.2956,0.3001,0.3041,0.3082,0.3081,0.3102,0.3134,0.3175,0.3204,0.3154,0.3217,0.3219,0.3228,0.3292,0.3251,0.3323,0.3266,0.3267,0.3269,0,0.2713,0.2727,0.2742,0.2788,0.28,0.2814,0.2892,0.2921,0.3,0.3032,0.3089,0.3123,0.3192,0.3167,0.3261,0.323,0.325,0.3267,0.327,0.3285,0.3252,0.3282,0.3344,0.3277,0.3284,0.3283,0.3282,0,0.2699,0.2719,0.2737,0.2751,0.28,0.282,0.2853,0.2931,0.2979,0.3057,0.3114,0.3178,0.3238,0.327,0.3331,0.3297,0.3426,0.3376,0.3404,0.3404,0.3386,0.3382,0.3395,0.3433,0.3433,0.3433,0.3433,0,0.2695,0.2706,0.2725,0.2736,0.276,0.2803,0.285,0.2898,0.2987,0.3045,0.3131,0.32,0.3269,0.3354,0.3364,0.3444,0.3458,0.3437,0.3439,0.3392,0.3388,0.3341,0.3293,0.3436,0.3435,0.3435,0.3434,0,0.2685,0.2698,0.2713,0.2748,0.2754,0.2773,0.2838,0.2879,0.2978,0.3062,0.3096,0.3249,0.3361,0.3437,0.351,0.3512,0.3479,0.3569,0.3517,0.3511,0.3446,0.3401,0.3287,0.3189,0.3604,0.3605,0.3606,0,0.2683,0.2688,0.2709,0.2709,0.2719,0.2747,0.2772,0.2856,0.2905,0.3079,0.3121,0.3288,0.3398,0.3562,0.3596,0.3653,0.352,0.3622,0.3544,0.3467,0.3418,0.3243,0.3154,0.3526,0.3526,0.3526,0.3526,0,0.2673,0.2679,0.2689,0.2694,0.27,0.2713,0.2752,0.279,0.2895,0.2991,0.3128,0.3242,0.3456,0.3535,0.3651,0.3661,0.3478,0.3624,0.3559,0.3385,0.3182,0.308,0.3441,0.3527,0.3527,0.3527,0.3527,0.3526,0.2655,0.2657,0.2666,0.2664,0.2673,0.2672,0.2664,0.272,0.2789,0.2902,0.3048,0.3199,0.3417,0.36,0.3586,0.358,0.3485,0.3508,0.347,0.3306,0.3176,0.3547,0.3622,0.3623,0.3623,0.3623,0.3624,0,0.2613,0.2621,0.2631,0.2619,0.261,0.2629,0.2643,0.2623,0.2655,0.281,0.2923,0.3159,0.3299,0.343,0.355,0.3465,0.3265,0.337,0.3119,0.3045,0.3417,0.3382,0.339,0.339,0.339,0.339,0.339,0.3391,0.2588,0.2576,0.2583,0.2547,0.2544,0.2486,0.2473,0.2451,0.2526,0.2627,0.2765,0.2922,0.3239,0.345,0.3443,0.3359,0.3077,0.2976,0.2888,0.3187,0.3195,0.3203,0.3159,0.312,0.312,0.2422,0.2417,0.2413]},{"header":{"parameterUnit":"m.s-1","parameterCategory":2,"la1":30.2991,"la2":30.254,"lo1":-89.0895,"lo2":-89.0444,"dy":0.0017,"dx":0.0017,"nx":28,"ny":28,"refTime":"2024-03-18T21:00:00:Z","depth":"0","parameterNumber":3,"parameterNumberName":"V-component_of_CURRENTS"},"data":[0,0,0,0,0,0,0,0,0,0,0,0,0,0,0,0,0,0,0,0,0,0,0,0,0,0,0,0,0,0,0,0,0,0,0,0,0,0,0,0,0,0,0,0,0,0,0,0,0,0,0,0,0,0,0,0,0,0,-0.0066,-0.0067,0,-0.0119,-0.012,-0.012,-0.0181,-0.0182,-0.0183,-0.0183,-0.0304,-0.0307,-0.0309,0,0,0,0,0,0,0,0,0,0,0,0,0,-0.0038,-0.0038,-0.0066,-0.0067,-0.0067,-0.0119,-0.012,-0.012,-0.0181,-0.0182,-0.0183,-0.0184,-0.0304,-0.0307,-0.031,0,0,0,0,0,0,0,0,0,0,0,0,0,-0.0068,-0.0038,-0.0066,-0.0103,-0.0106,-0.0119,-0.012,-0.0121,-0.0181,-0.0182,-0.0183,-0.0184,-0.0303,-0.0306,-0.031,-0.031,0,0,-0.0321,-0.0323,0,0,0,0,0,0,0,0,-0.0066,-0.0069,-0.0097,-0.01,-0.0104,-0.0143,-0.0154,-0.0187,-0.0181,-0.0154,-0.0183,-0.0185,-0.0255,-0.0263,-0.0271,-0.0315,-0.0321,-0.0322,-0.0324,-0.0326,-0.0327,0,0,0,0,0,0,0,-0.0064,-0.0067,-0.0089,-0.0097,-0.0102,-0.0123,-0.0128,-0.016,-0.02,-0.0157,-0.0161,-0.0164,-0.0258,-0.0267,-0.0275,-0.0322,-0.0322,-0.0325,-0.0327,-0.0329,-0.0387,-0.0387,0,0,0,0,0,0,-0.0052,-0.0065,-0.0087,-0.009,-0.0086,-0.0122,-0.0129,-0.0131,-0.0198,-0.0209,-0.0163,-0.0166,-0.026,-0.027,-0.0279,-0.0289,-0.0326,-0.0329,-0.0331,-0.0388,-0.0387,-0.0386,0,0,0,0,0,0,-0.0051,-0.0053,-0.0085,-0.0078,-0.0083,-0.0121,-0.0124,-0.0131,-0.0142,-0.0202,-0.0214,-0.0166,-0.0262,-0.0274,-0.0306,-0.0294,-0.0331,-0.0334,-0.0389,-0.0388,-0.0387,-0.0304,0,0,0,0,0,0,-0.005,-0.0053,-0.0049,-0.0077,-0.0083,-0.0085,-0.0122,-0.0131,-0.0141,-0.0147,-0.0208,-0.0221,-0.0264,-0.0299,-0.0309,-0.03,-0.0337,-0.039,-0.0388,-0.0387,-0.0308,-0.03,-0.0294,0,0,0,0,0,-0.0049,-0.0033,-0.0049,-0.0052,-0.0078,-0.0084,-0.0089,-0.0122,-0.014,-0.0137,-0.0181,-0.0219,-0.0298,-0.0302,-0.0313,-0.0305,-0.039,-0.0389,-0.0387,-0.0311,-0.0302,-0.0294,0,0,0,0,0,0,-0.0018,-0.0038,-0.0057,-0.0048,-0.0064,-0.0094,-0.0091,-0.0113,-0.0143,-0.015,-0.0211,-0.0226,-0.0251,-0.0285,-0.0287,-0.0317,-0.035,-0.035,-0.0288,-0.028,-0.0273,-0.0253,-0.034,0,0,0,0,0,-0.0008,-0.0004,-0.0029,-0.0022,-0.0025,-0.0057,-0.0064,-0.0083,-0.0113,-0.0127,-0.017,-0.0214,-0.0251,-0.0271,-0.0309,-0.0322,-0.0354,-0.0323,-0.0316,-0.031,-0.0302,-0.0342,-0.0338,-0.0381,-0.0381,-0.0381,0,0,0.0004,-0.0004,-0.0004,-0.0015,-0.0029,-0.0022,-0.0064,-0.0064,-0.0063,-0.0135,-0.0147,-0.0194,-0.025,-0.0269,-0.0282,-0.0297,-0.0313,-0.0308,-0.0303,-0.0297,-0.034,-0.0336,-0.0332,-0.038,-0.038,-0.038,0,0,0.0043,0.0027,0.0046,0.004,0.0029,0.001,0.0014,-0.0012,-0.003,-0.0045,-0.0099,-0.0136,-0.0186,-0.0225,-0.0252,-0.0228,-0.0278,-0.0238,-0.0186,-0.0225,-0.0222,-0.0219,-0.0244,-0.0244,-0.0231,-0.0231,-0.0231,0,0.0059,0.0079,0.0051,0.0071,0.0075,0.003,0.0053,0.0033,-0.0002,-0.001,-0.0039,-0.0112,-0.0165,-0.0191,-0.0186,-0.0213,-0.0236,-0.0212,-0.0215,-0.0214,-0.0213,-0.0239,-0.024,-0.0227,-0.0228,-0.0228,-0.0228,0,0.0112,0.0127,0.0142,0.0149,0.0147,0.0163,0.0134,0.0127,0.0098,0.007,0.0039,-0.0031,-0.0074,-0.0097,-0.0138,-0.0151,-0.017,-0.0204,-0.0234,-0.0203,-0.0233,-0.0236,-0.0221,-0.0223,-0.0224,-0.0225,0,0,0.0149,0.0175,0.0179,0.02,0.0193,0.02,0.0204,0.0196,0.0204,0.0152,0.0156,0.0078,0.0038,0.0005,-0.0052,-0.0088,-0.0107,-0.0133,-0.0137,-0.0152,-0.0178,-0.018,-0.0184,-0.014,-0.014,-0.014,-0.0197,0,0.0198,0.0258,0.0252,0.0302,0.0329,0.0299,0.0313,0.0295,0.0264,0.0255,0.0177,0.0151,0.0077,0.006,0.0012,-0.0079,-0.0113,-0.0087,-0.021,-0.0213,-0.0215,-0.0187,-0.016,-0.0208,-0.0201,-0.0201,-0.0202,0,0.0249,0.0285,0.0346,0.0388,0.0397,0.0415,0.0427,0.0434,0.0401,0.0375,0.0329,0.0269,0.0206,0.014,0.0008,0.003,-0.0061,-0.0135,-0.014,-0.0172,-0.0221,-0.0241,-0.0214,-0.0405,-0.0207,-0.0207,-0.0206,0,0.0288,0.0348,0.0401,0.0415,0.0451,0.0471,0.0485,0.0469,0.0496,0.0449,0.0463,0.0362,0.0331,0.0199,0.0047,0.0027,-0.0092,-0.0144,-0.023,-0.0231,-0.0248,-0.025,-0.0416,-0.0232,-0.0231,-0.0231,-0.0231,0,0.034,0.0383,0.0427,0.0456,0.0528,0.0527,0.0591,0.0578,0.0594,0.0638,0.0532,0.055,0.0345,0.0254,0.0093,-0.0065,-0.0061,-0.021,-0.0244,-0.0217,-0.0215,-0.0415,-0.0513,-0.0233,-0.0233,-0.0233,-0.0232,0,0.0372,0.0399,0.0469,0.0524,0.0548,0.0596,0.0678,0.0729,0.072,0.0776,0.0773,0.0697,0.0572,0.0373,0.0163,0.0014,-0.0252,-0.0213,-0.0158,-0.0184,-0.0447,-0.054,-0.0726,-0.08,-0.0319,-0.0319,-0.0319,0,0.0395,0.0434,0.0519,0.0573,0.0602,0.0681,0.0748,0.0779,0.0846,0.0877,0.0923,0.0829,0.0797,0.05,0.0198,-0.0075,-0.0254,-0.0229,-0.0273,-0.0448,-0.0578,-0.0652,-0.0707,-0.0263,-0.0263,-0.0263,-0.0263,0,0.0444,0.047,0.053,0.0642,0.0722,0.0828,0.0925,0.1006,0.1054,0.1118,0.1187,0.1168,0.088,0.0622,0.0237,0.0038,-0.035,-0.0234,-0.0439,-0.0559,-0.0629,-0.0719,-0.0236,-0.0261,-0.0261,-0.0261,-0.0261,-0.0261,0.0481,0.0535,0.0619,0.0727,0.0829,0.097,0.1075,0.1193,0.1333,0.1449,0.1405,0.1433,0.1021,0.0507,0.0195,-0.0349,-0.0362,-0.051,-0.0609,-0.067,-0.0741,-0.0242,-0.0293,-0.0293,-0.0293,-0.0294,-0.0294,0,0.054,0.0605,0.0706,0.0846,0.0976,0.1017,0.1199,0.1319,0.1504,0.1618,0.169,0.1539,0.1037,0.0506,-0.0237,-0.0645,-0.0796,-0.087,-0.0989,-0.1028,-0.0605,-0.0602,-0.0694,-0.0694,-0.0694,-0.0693,-0.0693,-0.0693,0.0576,0.0681,0.0736,0.0953,0.1058,0.1245,0.136,0.1529,0.1664,0.184,0.1897,0.1893,0.1501,0.0126,-0.0823,-0.1044,-0.1318,-0.138,-0.1533,-0.1271,-0.1246,-0.1222,-0.1245,-0.147,-0.1471,-0.1901,-0.1905,-0.1909]}],[{"header":{"parameterUnit":"m.s-1","parameterCategory":2,"la1":30.2991,"la2":30.254,"lo1":-89.0895,"lo2":-89.0444,"dy":0.0017,"dx":0.0017,"nx":28,"ny":28,"refTime":"2024-03-18T21:00:00:Z","depth":"2","parameterNumber":2,"parameterNumberName":"U-component_of_CURRENTS"},"data":[0,0,0,0,0,0,0,0,0,0,0,0,0,0,0,0,0,0,0,0,0,0,0,0,0,0,0,0,0,0,0,0,0,0,0,0,0,0,0,0,0,0,0,0,0,0,0,0,0,0,0,0,0,0,0,0,0,0,0.2284,0.2285,0,0.234,0.234,0.2341,0.2386,0.2387,0.2387,0.2388,0.2418,0.2418,0.2418,0,0,0,0,0,0,0,0,0,0,0,0,0,0.2239,0.224,0.2284,0.2285,0.2286,0.234,0.234,0.2341,0.2386,0.2387,0.2388,0.2388,0.2418,0.2418,0.2418,0,0,0,0,0,0,0,0,0,0,0,0,0,0.2272,0.224,0.2284,0.2316,0.2319,0.2339,0.234,0.2341,0.2386,0.2387,0.2388,0.2389,0.2417,0.2418,0.2418,0.2402,0,0,0.2419,0.2419,0,0,0,0,0,0,0,0,0.227,0.2273,0.231,0.2314,0.2318,0.2358,0.2336,0.2361,0.2386,0.2359,0.2388,0.2389,0.2396,0.2398,0.2404,0.2403,0.2404,0.2419,0.2419,0.2419,0.242,0,0,0,0,0,0,0,0.2267,0.2271,0.2304,0.2311,0.2316,0.2335,0.234,0.2341,0.237,0.2361,0.2365,0.2374,0.2397,0.2404,0.2405,0.2405,0.2419,0.2419,0.242,0.242,0.2464,0.2465,0,0,0,0,0,0,0.2261,0.2269,0.2303,0.2306,0.2297,0.2335,0.2341,0.2343,0.2371,0.2376,0.2373,0.2376,0.2403,0.2405,0.2407,0.2449,0.2419,0.242,0.242,0.2463,0.2464,0.2465,0,0,0,0,0,0,0.226,0.2263,0.2301,0.229,0.2297,0.2335,0.2337,0.2344,0.2367,0.238,0.2385,0.2391,0.2404,0.2406,0.2421,0.2448,0.242,0.242,0.2462,0.2463,0.2465,0.2494,0,0,0,0,0,0,0.2258,0.2262,0.2264,0.229,0.2297,0.2323,0.2336,0.2344,0.237,0.2375,0.2396,0.2399,0.2405,0.242,0.2421,0.2448,0.242,0.2461,0.2463,0.2464,0.2492,0.2496,0.25,0,0,0,0,0,0.2256,0.2253,0.2263,0.2268,0.2297,0.2324,0.2329,0.2359,0.237,0.2382,0.2396,0.2399,0.2433,0.2421,0.2422,0.2449,0.246,0.2462,0.2464,0.249,0.2496,0.25,0,0,0,0,0,0,0.2225,0.2259,0.227,0.2275,0.2303,0.2332,0.2346,0.2363,0.2384,0.2391,0.2401,0.2405,0.2437,0.2432,0.2418,0.2469,0.2451,0.2454,0.2471,0.2476,0.248,0.2493,0.2421,0,0,0,0,0,0.2219,0.2234,0.2264,0.227,0.2285,0.2317,0.2332,0.2353,0.2374,0.2386,0.24,0.2418,0.2443,0.245,0.2468,0.2479,0.2492,0.2501,0.2505,0.2509,0.2521,0.2557,0.2566,0.2473,0.2473,0.2472,0,0,0.221,0.2229,0.2238,0.2266,0.229,0.2315,0.2329,0.2357,0.2382,0.2383,0.2416,0.2434,0.2451,0.248,0.2493,0.2479,0.2543,0.2512,0.2515,0.2525,0.256,0.257,0.2578,0.2474,0.2474,0.2474,0,0,0.2199,0.2216,0.2229,0.2255,0.2294,0.2317,0.2328,0.2365,0.2389,0.2415,0.2436,0.2466,0.2486,0.2513,0.2527,0.256,0.257,0.2569,0.2593,0.2627,0.2635,0.2643,0.2672,0.2681,0.2563,0.2563,0.2563,0,0.2188,0.2206,0.2235,0.2256,0.2282,0.232,0.2343,0.2371,0.2407,0.2432,0.243,0.2496,0.2507,0.2558,0.2577,0.2572,0.259,0.257,0.2633,0.2641,0.2648,0.2675,0.2686,0.2565,0.2565,0.2565,0.2564,0,0.2189,0.2211,0.2222,0.2265,0.2293,0.2322,0.2366,0.2399,0.2429,0.2459,0.2518,0.2537,0.258,0.2591,0.2594,0.2656,0.2653,0.264,0.262,0.2659,0.2685,0.2696,0.2567,0.2567,0.2566,0.2566,0,0,0.2155,0.2213,0.2219,0.2245,0.2306,0.2328,0.2378,0.2437,0.2479,0.2515,0.2569,0.2616,0.2637,0.2656,0.2669,0.2696,0.2759,0.269,0.2691,0.2718,0.2839,0.2825,0.2835,0.2757,0.2759,0.2761,0.2838,0,0.2154,0.2189,0.2222,0.2267,0.2297,0.2352,0.2397,0.2454,0.2505,0.2564,0.2609,0.2662,0.2659,0.2686,0.2718,0.2759,0.2788,0.274,0.2799,0.2801,0.2783,0.2847,0.265,0.2701,0.2848,0.285,0.2851,0,0.2152,0.2179,0.2217,0.2285,0.2303,0.2332,0.2422,0.2468,0.2562,0.2602,0.2667,0.2706,0.2778,0.2755,0.2845,0.2817,0.2836,0.2853,0.2855,0.2841,0.2806,0.2687,0.2714,0.2868,0.2866,0.2865,0.2864,0,0.2122,0.2181,0.2211,0.2234,0.2309,0.2341,0.239,0.2481,0.2539,0.2635,0.2695,0.2764,0.2826,0.286,0.2915,0.2885,0.3005,0.2961,0.2963,0.2962,0.2806,0.2788,0.3016,0.3016,0.3016,0.3016,0.3016,0,0.2117,0.214,0.2199,0.2214,0.226,0.2324,0.2388,0.245,0.2557,0.2626,0.2716,0.2785,0.2858,0.2937,0.2949,0.3009,0.3036,0.2992,0.2991,0.2811,0.2794,0.2942,0.2932,0.3019,0.3018,0.3017,0.3017,0,0.2085,0.212,0.2156,0.2224,0.2245,0.2281,0.2382,0.2435,0.2548,0.2646,0.2685,0.2833,0.2935,0.3006,0.3078,0.3068,0.3105,0.311,0.29,0.2873,0.3023,0.3014,0.3115,0.3115,0.3116,0.3116,0.3116,0,0.2074,0.2091,0.2147,0.2163,0.2191,0.2252,0.2296,0.241,0.2473,0.266,0.2705,0.2863,0.2952,0.3088,0.3098,0.3139,0.3148,0.2958,0.2863,0.305,0.3039,0.3029,0.302,0.2662,0.2659,0.2656,0.2654,0,0.205,0.2068,0.2085,0.2126,0.216,0.2206,0.228,0.2324,0.2462,0.2564,0.2701,0.2797,0.2962,0.2938,0.3018,0.2994,0.2936,0.2903,0.3162,0.2677,0.2632,0.2618,0.2622,0.2628,0.2631,0.2632,0.2634,0.2635,0.2023,0.2029,0.2052,0.208,0.2116,0.2147,0.2156,0.2247,0.2332,0.2452,0.2588,0.2675,0.2754,0.2794,0.2731,0.2691,0.2873,0.2732,0.2737,0.2746,0.2689,0.2648,0.2636,0.2638,0.2641,0.2643,0.2644,0,0.1991,0.1997,0.2013,0.2027,0.2028,0.2084,0.2132,0.2126,0.2177,0.2326,0.2427,0.2313,0.2354,0.2418,0.2347,0.237,0.2295,0.2253,0.2131,0.2163,0.2189,0.2097,0.189,0.1887,0.1884,0.1881,0,0,0.1974,0.1955,0.1954,0.1923,0.1944,0.1914,0.192,0.1936,0.2009,0.2038,0.2084,0.2288,0.2407,0.212,0.2102,0.1987,0.2043,0.1912,0.2535,0.2428,0.245,0.2508,0.241,0,0,0,0,0]},{"header":{"parameterUnit":"m.s-1","parameterCategory":2,"la1":30.2991,"la2":30.254,"lo1":-89.0895,"lo2":-89.0444,"dy":0.0017,"dx":0.0017,"nx":28,"ny":28,"refTime":"2024-03-18T21:00:00:Z","depth":"2","parameterNumber":3,"parameterNumberName":"V-component_of_CURRENTS"},"data":[0,0,0,0,0,0,0,0,0,0,0,0,0,0,0,0,0,0,0,0,0,0,0,0,0,0,0,0,0,0,0,0,0,0,0,0,0,0,0,0,0,0,0,0,0,0,0,0,0,0,0,0,0,0,0,0,0,0,0.0041,0.0041,0,-0.003,-0.0031,-0.0032,-0.0089,-0.0089,-0.009,-0.009,-0.0217,-0.022,-0.0223,0,0,0,0,0,0,0,0,0,0,0,0,0,0.0075,0.0075,0.0041,0.0041,0.004,-0.003,-0.0031,-0.0032,-0.0089,-0.0089,-0.009,-0.009,-0.0216,-0.022,-0.0223,0,0,0,0,0,0,0,0,0,0,0,0,0,0.0037,0.0075,0.0041,0.0004,0.0,-0.0029,-0.0031,-0.0032,-0.0088,-0.0089,-0.009,-0.009,-0.0215,-0.0219,-0.0224,-0.0238,0,0,-0.0237,-0.0239,0,0,0,0,0,0,0,0,0.0039,0.0035,0.001,0.0007,0.0002,-0.005,-0.0065,-0.0103,-0.0088,-0.0056,-0.009,-0.0091,-0.0165,-0.0174,-0.0187,-0.0244,-0.0249,-0.0238,-0.024,-0.0242,-0.0244,0,0,0,0,0,0,0,0.0042,0.0038,0.0012,0.001,0.0005,-0.0027,-0.0033,-0.0073,-0.0108,-0.0059,-0.0063,-0.0069,-0.0168,-0.0182,-0.019,-0.0251,-0.0238,-0.0241,-0.0244,-0.0246,-0.0325,-0.0324,0,0,0,0,0,0,0.0057,0.0041,0.0014,0.001,0.0021,-0.0027,-0.0033,-0.0034,-0.0107,-0.0117,-0.0068,-0.0071,-0.0174,-0.0185,-0.0195,-0.0211,-0.0242,-0.0246,-0.0249,-0.0325,-0.0325,-0.0324,0,0,0,0,0,0,0.0058,0.0055,0.0017,0.0024,0.0017,-0.0026,-0.0026,-0.0035,-0.0051,-0.0112,-0.0125,-0.0076,-0.0175,-0.0189,-0.0228,-0.0217,-0.0248,-0.0252,-0.0326,-0.0325,-0.0324,-0.0247,0,0,0,0,0,0,0.0059,0.0056,0.006,0.0026,0.0017,0.0004,-0.0026,-0.0035,-0.0053,-0.0058,-0.0123,-0.0136,-0.0177,-0.0221,-0.0232,-0.0224,-0.0256,-0.0327,-0.0326,-0.0325,-0.025,-0.0244,-0.0238,0,0,0,0,0,0.0061,0.0074,0.0061,0.0057,0.0024,0.0004,-0.0003,-0.0037,-0.0052,-0.0056,-0.0099,-0.0134,-0.0222,-0.0224,-0.0238,-0.023,-0.0327,-0.0326,-0.0325,-0.0253,-0.0245,-0.0238,0,0,0,0,0,0,0.009,0.0068,0.0053,0.0058,0.0034,-0.0005,-0.0008,-0.0032,-0.0068,-0.0072,-0.0132,-0.0147,-0.0177,-0.0213,-0.0214,-0.0248,-0.0278,-0.0279,-0.0219,-0.0212,-0.0206,-0.0186,-0.026,0,0,0,0,0,0.01,0.0102,0.0073,0.0075,0.0068,0.0031,0.0018,-0.0003,-0.0038,-0.0055,-0.01,-0.0144,-0.0181,-0.0203,-0.0243,-0.0264,-0.0297,-0.0266,-0.026,-0.0255,-0.0247,-0.0289,-0.0285,-0.032,-0.032,-0.032,0,0,0.0109,0.01,0.0098,0.0081,0.0061,0.0061,0.0021,0.001,0.0007,-0.0063,-0.0082,-0.0127,-0.0183,-0.0206,-0.0222,-0.0235,-0.026,-0.0253,-0.0248,-0.0243,-0.0287,-0.0284,-0.0281,-0.0319,-0.0319,-0.0319,0,0,0.0137,0.0125,0.0137,0.0126,0.0106,0.0085,0.0085,0.0051,0.0032,0.0008,-0.004,-0.0078,-0.0134,-0.017,-0.0196,-0.0179,-0.0227,-0.0189,-0.0142,-0.0182,-0.018,-0.0178,-0.0204,-0.0206,-0.0184,-0.0183,-0.0183,0,0.0148,0.0165,0.0136,0.0149,0.0148,0.0102,0.0117,0.0093,0.0048,0.0038,0.0013,-0.0064,-0.0116,-0.0143,-0.0137,-0.0166,-0.019,-0.0165,-0.0174,-0.0173,-0.0172,-0.02,-0.0202,-0.018,-0.018,-0.018,-0.0181,0,0.0187,0.02,0.0209,0.0211,0.0203,0.0211,0.018,0.0168,0.0139,0.011,0.0076,0.0007,-0.0037,-0.0058,-0.0096,-0.0112,-0.013,-0.0162,-0.019,-0.0164,-0.0195,-0.0199,-0.0174,-0.0175,-0.0177,-0.0178,0,0,0.0212,0.0233,0.0236,0.0255,0.0242,0.0243,0.0242,0.0228,0.0233,0.0178,0.0177,0.0103,0.0064,0.0033,-0.002,-0.0056,-0.0079,-0.0099,-0.0103,-0.012,-0.0154,-0.0166,-0.0172,-0.0111,-0.0111,-0.0112,-0.0173,0,0.0251,0.0299,0.0294,0.0333,0.0355,0.0326,0.0335,0.0314,0.0282,0.0266,0.0194,0.0166,0.01,0.0083,0.0035,-0.0053,-0.0087,-0.0058,-0.0182,-0.0185,-0.0195,-0.0177,-0.015,-0.0203,-0.0177,-0.0178,-0.0179,0,0.0289,0.0321,0.0372,0.041,0.0417,0.0428,0.0437,0.0438,0.0401,0.0375,0.0329,0.0271,0.0208,0.015,0.0019,0.0042,-0.0044,-0.0114,-0.0119,-0.016,-0.0204,-0.0228,-0.0211,-0.0186,-0.0185,-0.0185,-0.0184,0,0.0325,0.0374,0.0422,0.0433,0.0463,0.048,0.0489,0.047,0.0489,0.0442,0.0449,0.0352,0.0316,0.0193,0.0045,0.0033,-0.0095,-0.0136,-0.0225,-0.0226,-0.0243,-0.0245,-0.022,-0.022,-0.022,-0.022,-0.0219,0,0.0371,0.0409,0.0445,0.0473,0.0535,0.0531,0.0585,0.057,0.0576,0.061,0.0511,0.0515,0.0325,0.0229,0.0082,-0.0077,-0.0071,-0.0209,-0.0243,-0.0214,-0.0213,-0.0234,-0.0235,-0.0222,-0.0221,-0.0221,-0.0221,0,0.0402,0.0425,0.0486,0.0535,0.0555,0.0595,0.0663,0.0703,0.0691,0.0731,0.0727,0.0639,0.0507,0.0321,0.0119,-0.0017,-0.0178,-0.0235,-0.018,-0.0207,-0.029,-0.0287,-0.034,-0.0341,-0.0342,-0.0342,-0.0343,0,0.0423,0.0458,0.0532,0.0577,0.0602,0.067,0.0726,0.0751,0.0804,0.0814,0.0846,0.0741,0.0683,0.0388,0.0115,-0.0138,-0.0172,-0.0271,-0.0298,-0.0275,-0.0303,-0.0298,-0.0293,-0.0288,-0.0288,-0.0288,-0.0289,0,0.0466,0.0488,0.0541,0.0637,0.0704,0.0796,0.0877,0.0943,0.098,0.1019,0.1048,0.1006,0.0722,0.0461,0.0108,-0.0061,-0.0233,-0.028,-0.0274,-0.0259,-0.0231,-0.0257,-0.0253,-0.0289,-0.0289,-0.0289,-0.0289,-0.0289,0.0495,0.0539,0.0612,0.0704,0.0791,0.091,0.0998,0.1091,0.1196,0.1263,0.121,0.116,0.0843,0.0402,0.0082,-0.0245,-0.0233,-0.0338,-0.0336,-0.0334,-0.0314,-0.0289,-0.0353,-0.0353,-0.0353,-0.0354,-0.0354,0,0.0536,0.0591,0.0677,0.0794,0.0903,0.0945,0.1095,0.1186,0.1319,0.1375,0.1398,0.1128,0.0825,0.0469,-0.0023,-0.0317,-0.0338,-0.0396,-0.0364,-0.036,-0.0358,-0.0339,-0.0385,-0.0386,-0.0387,-0.0388,0,0,0.0559,0.0647,0.0696,0.0871,0.0962,0.1115,0.1211,0.1335,0.1416,0.1483,0.1466,0.1389,0.0948,0.0593,0.0177,-0.0107,-0.0158,-0.0153,-0.0095,-0.0004,0.0002,-0.0291,-0.0253,0,0,0,0,0]}],[{"header":{"parameterUnit":"m.s-1","parameterCategory":2,"la1":30.2991,"la2":30.254,"lo1":-89.0895,"lo2":-89.0444,"dy":0.0017,"dx":0.0017,"nx":28,"ny":28,"refTime":"2024-03-18T21:00:00:Z","depth":"4","parameterNumber":2,"parameterNumberName":"U-component_of_CURRENTS"},"data":[0,0,0,0,0,0,0,0,0,0,0,0,0,0,0,0,0,0,0,0,0,0,0,0,0,0,0,0,0,0,0,0,0,0,0,0,0,0,0,0,0,0,0,0,0,0,0,0,0,0,0,0,0,0,0,0,0,0,0.1353,0.1354,0,0.1466,0.1468,0.1469,0.153,0.1531,0.1531,0.1531,0.1639,0.1642,0.1644,0,0,0,0,0,0,0,0,0,0,0,0,0,0.1227,0.1229,0.1353,0.1355,0.1356,0.1466,0.1468,0.1469,0.153,0.1531,0.1531,0.1532,0.1638,0.1641,0.1644,0,0,0,0,0,0,0,0,0,0,0,0,0,0.1302,0.1229,0.1353,0.1402,0.1408,0.1466,0.1468,0.1469,0.153,0.1531,0.1531,0.1532,0.1637,0.1641,0.1645,0.1656,0,0,0.1656,0.1658,0,0,0,0,0,0,0,0,0.1298,0.1307,0.1393,0.1399,0.1405,0.1487,0.1463,0.1532,0.153,0.1481,0.1531,0.1532,0.1589,0.1597,0.1613,0.1661,0.1665,0.1656,0.1659,0.166,0.1661,0,0,0,0,0,0,0,0.1293,0.1302,0.1395,0.1395,0.1403,0.1432,0.1443,0.1476,0.1528,0.1485,0.1491,0.1507,0.1592,0.1609,0.1616,0.1667,0.1656,0.166,0.1662,0.1663,0.1807,0.1809,0,0,0,0,0,0,0.1282,0.1297,0.1391,0.1399,0.1355,0.1434,0.1446,0.1458,0.1528,0.154,0.1507,0.151,0.1603,0.1612,0.162,0.1715,0.166,0.1664,0.1666,0.1806,0.1808,0.1809,0,0,0,0,0,0,0.1279,0.1289,0.1387,0.1353,0.1368,0.1435,0.1449,0.146,0.1513,0.1545,0.1556,0.1552,0.1603,0.1615,0.1677,0.1716,0.1665,0.1669,0.1804,0.1806,0.1809,0.1854,0,0,0,0,0,0,0.1274,0.1287,0.1307,0.1352,0.137,0.1444,0.1449,0.1462,0.1521,0.1527,0.1587,0.1596,0.1605,0.1671,0.1681,0.172,0.1672,0.1802,0.1805,0.1808,0.185,0.1858,0.1864,0,0,0,0,0,0.1269,0.1292,0.1307,0.132,0.139,0.1446,0.1458,0.1505,0.1523,0.1553,0.1591,0.1596,0.1697,0.1676,0.1686,0.1728,0.18,0.1804,0.1808,0.1847,0.1856,0.1863,0,0,0,0,0,0,0.1251,0.1302,0.1319,0.1358,0.1408,0.1458,0.1498,0.1526,0.158,0.1595,0.1617,0.1629,0.1701,0.1706,0.1683,0.1778,0.1749,0.1755,0.1776,0.1784,0.1791,0.1792,0.1675,0,0,0,0,0,0.1254,0.1287,0.1337,0.1373,0.1401,0.1455,0.149,0.1523,0.157,0.1597,0.1636,0.1677,0.1718,0.1745,0.1782,0.1833,0.1839,0.1866,0.1873,0.1878,0.1887,0.1924,0.1935,0.1821,0.1821,0.1821,0,0,0.1256,0.1293,0.1311,0.1373,0.1418,0.1462,0.1478,0.1544,0.1585,0.1599,0.1676,0.171,0.1739,0.1798,0.183,0.1811,0.1915,0.1883,0.1887,0.1893,0.1929,0.194,0.195,0.1823,0.1823,0.1823,0,0,0.1274,0.1313,0.1344,0.1388,0.1462,0.1494,0.152,0.1588,0.1628,0.1697,0.1718,0.1774,0.1838,0.1864,0.1882,0.1948,0.1953,0.1966,0.1999,0.2036,0.2045,0.2054,0.2077,0.2087,0.1964,0.1964,0.1964,0,0.1278,0.1321,0.1365,0.1409,0.1452,0.151,0.1555,0.1602,0.1683,0.172,0.173,0.1839,0.1866,0.193,0.1955,0.1964,0.1982,0.1965,0.2044,0.2052,0.206,0.2082,0.2093,0.1967,0.1966,0.1966,0.1966,0,0.131,0.1357,0.1386,0.1454,0.1503,0.1559,0.162,0.168,0.1734,0.1777,0.187,0.1908,0.1971,0.199,0.1996,0.207,0.2065,0.2051,0.2021,0.2074,0.2094,0.2104,0.1971,0.197,0.1969,0.1968,0,0,0.1287,0.1387,0.14,0.1441,0.1535,0.1576,0.1652,0.1733,0.1789,0.1865,0.1937,0.201,0.2043,0.2066,0.2086,0.2118,0.2189,0.2115,0.2116,0.2133,0.2272,0.2142,0.214,0.2194,0.2196,0.2198,0.2263,0,0.1305,0.1381,0.1431,0.1511,0.1557,0.1632,0.1693,0.1774,0.1847,0.1929,0.1986,0.2065,0.2067,0.211,0.2146,0.2188,0.2219,0.2173,0.2222,0.2224,0.2097,0.2149,0.2204,0.2271,0.2273,0.2275,0.2276,0,0.1314,0.137,0.1443,0.1543,0.1571,0.1626,0.1741,0.1807,0.1922,0.1983,0.2068,0.2118,0.2202,0.2185,0.2278,0.2254,0.2273,0.2288,0.229,0.216,0.2112,0.2207,0.2294,0.2293,0.2291,0.229,0.2289,0,0.1265,0.1375,0.1434,0.147,0.1588,0.1642,0.1714,0.1828,0.1902,0.2028,0.2098,0.2186,0.2258,0.2296,0.2347,0.2325,0.2431,0.2396,0.2293,0.2284,0.236,0.235,0.2451,0.2451,0.2451,0.2451,0.2451,0,0.1248,0.1299,0.1422,0.1453,0.1534,0.1628,0.1724,0.1808,0.1941,0.2022,0.2129,0.2197,0.2295,0.2365,0.2378,0.2372,0.2459,0.2309,0.2295,0.2378,0.2369,0.2367,0.2356,0.2453,0.2453,0.2452,0.2452,0,0.1177,0.1258,0.1332,0.1464,0.1512,0.1571,0.1731,0.1798,0.1935,0.2047,0.2097,0.2244,0.2324,0.2397,0.2469,0.2407,0.2412,0.2385,0.2483,0.2472,0.223,0.2221,0.2262,0.2258,0.2255,0.2252,0.2249,0,0.1144,0.1177,0.1321,0.1371,0.1437,0.1546,0.1619,0.1776,0.185,0.2049,0.2088,0.2231,0.2304,0.2308,0.2383,0.2398,0.237,0.2354,0.2272,0.223,0.2213,0.2209,0.2205,0.2244,0.2243,0.2242,0.2241,0,0.1079,0.1139,0.1199,0.1305,0.1392,0.1482,0.16,0.1645,0.1817,0.1957,0.2035,0.2086,0.2176,0.2221,0.2263,0.2262,0.235,0.2318,0.2323,0.2246,0.2208,0.2194,0.2194,0.223,0.2232,0.2233,0.2233,0,0.103,0.1053,0.1143,0.1226,0.1327,0.139,0.1466,0.1559,0.1653,0.1865,0.1878,0.2024,0.215,0.2152,0.2183,0.2184,0.214,0.2057,0.2076,0.2089,0.2002,0.1926,0.1857,0,0,0,0,0,0.0979,0.0997,0.1064,0.1146,0.1239,0.1305,0.1442,0.1522,0.1679,0.169,0.1785,0.1853,0.1913,0.1987,0.1952,0.2101,0.2145,0.205,0.2058,0.2165,0.2179,0.2091,0,0,0,0,0,0,0.0945,0.0995,0.1026,0.1061,0.1104,0.1199,0.1283,0.1394,0.141,0.1572,0.1616,0.1736,0.1823,0.1911,0.1913,0.1935,0.1902,0.2141,0.2136,0.2157,0.217,0.218,0.2095,0,0,0,0,0]},{"header":{"parameterUnit":"m.s-1","parameterCategory":2,"la1":30.2991,"la2":30.254,"lo1":-89.0895,"lo2":-89.0444,"dy":0.0017,"dx":0.0017,"nx":28,"ny":28,"refTime":"2024-03-18T21:00:00:Z","depth":"4","parameterNumber":3,"parameterNumberName":"V-component_of_CURRENTS"},"data":[0,0,0,0,0,0,0,0,0,0,0,0,0,0,0,0,0,0,0,0,0,0,0,0,0,0,0,0,0,0,0,0,0,0,0,0,0,0,0,0,0,0,0,0,0,0,0,0,0,0,0,0,0,0,0,0,0,0,0.0108,0.0108,0,0.0047,0.0047,0.0046,0.0008,0.0008,0.0008,0.0008,-0.01,-0.0103,-0.0106,0,0,0,0,0,0,0,0,0,0,0,0,0,0.014,0.014,0.0109,0.0108,0.0107,0.0047,0.0047,0.0046,0.0008,0.0008,0.0008,0.0008,-0.0099,-0.0103,-0.0106,0,0,0,0,0,0,0,0,0,0,0,0,0,0.0107,0.014,0.0109,0.0082,0.0079,0.0048,0.0046,0.0045,0.0008,0.0008,0.0008,0.0008,-0.0098,-0.0102,-0.0106,-0.0129,0,0,-0.0119,-0.0121,0,0,0,0,0,0,0,0,0.0109,0.0106,0.0086,0.0084,0.008,0.0036,0.0018,-0.0015,0.0008,0.0034,0.0008,0.0008,-0.0058,-0.0066,-0.0078,-0.0134,-0.0138,-0.012,-0.0122,-0.0124,-0.0125,0,0,0,0,0,0,0,0.0112,0.0108,0.0083,0.0086,0.0082,0.0055,0.005,0.0012,-0.0012,0.0032,0.0029,0.0024,-0.0061,-0.0073,-0.008,-0.014,-0.0119,-0.0123,-0.0126,-0.0127,-0.0209,-0.0209,0,0,0,0,0,0,0.0124,0.0111,0.0085,0.0082,0.0095,0.0055,0.005,0.005,-0.0011,-0.0019,0.0024,0.0022,-0.0066,-0.0076,-0.0084,-0.0103,-0.0124,-0.0128,-0.013,-0.0209,-0.0209,-0.0208,0,0,0,0,0,0,0.0125,0.0122,0.0088,0.0095,0.0089,0.0055,0.0055,0.0049,0.0035,-0.0016,-0.0026,0.0017,-0.0067,-0.0079,-0.0117,-0.0108,-0.013,-0.0133,-0.021,-0.0209,-0.0209,-0.0147,0,0,0,0,0,0,0.0126,0.0123,0.0127,0.0096,0.0089,0.0073,0.0055,0.0048,0.0032,0.0029,-0.0025,-0.0035,-0.0068,-0.011,-0.0121,-0.0114,-0.0137,-0.021,-0.0209,-0.0209,-0.0149,-0.0144,-0.014,0,0,0,0,0,0.0127,0.0135,0.0128,0.0125,0.0096,0.0073,0.0066,0.0041,0.0032,0.0027,-0.0008,-0.0034,-0.0113,-0.0113,-0.0126,-0.012,-0.021,-0.021,-0.0209,-0.0151,-0.0145,-0.014,0,0,0,0,0,0,0.0148,0.013,0.0123,0.0123,0.0102,0.0067,0.0062,0.0044,0.0012,0.001,-0.0037,-0.005,-0.0078,-0.0109,-0.0107,-0.0141,-0.0163,-0.0165,-0.0115,-0.011,-0.0105,-0.0088,-0.014,0,0,0,0,0,0.0156,0.0158,0.0133,0.0133,0.0126,0.0095,0.0082,0.0066,0.0035,0.0021,-0.0016,-0.0053,-0.0084,-0.0105,-0.0139,-0.0163,-0.0192,-0.0165,-0.016,-0.0156,-0.015,-0.0189,-0.0187,-0.0206,-0.0206,-0.0206,0,0,0.0162,0.0155,0.0154,0.0138,0.012,0.0116,0.0087,0.0073,0.0069,0.0013,-0.0005,-0.0042,-0.0088,-0.011,-0.0125,-0.0135,-0.0165,-0.0155,-0.0151,-0.0147,-0.0188,-0.0186,-0.0184,-0.0206,-0.0206,-0.0206,0,0,0.0179,0.0172,0.018,0.0169,0.015,0.0132,0.0131,0.0099,0.0085,0.0061,0.0025,-0.0007,-0.0058,-0.0086,-0.0107,-0.0099,-0.0139,-0.0107,-0.0071,-0.0109,-0.0107,-0.0106,-0.0135,-0.0137,-0.0104,-0.0103,-0.0103,0,0.0187,0.0198,0.0176,0.0182,0.0181,0.0144,0.0152,0.0132,0.0091,0.0083,0.0064,-0.0002,-0.0044,-0.0068,-0.0063,-0.0088,-0.0113,-0.0087,-0.0102,-0.0102,-0.0102,-0.0132,-0.0135,-0.01,-0.0101,-0.0101,-0.0101,0,0.0208,0.0219,0.0223,0.0224,0.0216,0.0218,0.0193,0.0182,0.0161,0.0137,0.0108,0.0051,0.0014,-0.0003,-0.0033,-0.005,-0.0067,-0.0092,-0.0114,-0.0096,-0.0129,-0.0133,-0.0096,-0.0097,-0.0098,-0.0099,0,0,0.0219,0.0237,0.0239,0.0256,0.0243,0.0241,0.024,0.0228,0.0231,0.0186,0.0184,0.0124,0.0093,0.0067,0.0024,-0.0009,-0.0035,-0.0044,-0.0047,-0.0067,-0.011,-0.0112,-0.0118,-0.0061,-0.0062,-0.0062,-0.0129,0,0.0243,0.0276,0.0274,0.0304,0.032,0.0301,0.0308,0.0291,0.0265,0.0251,0.0194,0.0171,0.012,0.0106,0.0064,-0.0012,-0.0045,-0.0014,-0.0128,-0.0132,-0.0132,-0.0123,-0.0064,-0.0133,-0.0134,-0.0135,-0.0135,0,0.0263,0.0288,0.0327,0.0361,0.0367,0.0377,0.0386,0.0386,0.0356,0.0337,0.0299,0.0251,0.0196,0.0153,0.0036,0.0058,-0.0015,-0.0076,-0.0081,-0.0107,-0.0142,-0.0157,-0.0144,-0.0144,-0.0143,-0.0142,-0.0142,0,0.0286,0.0324,0.0362,0.0372,0.04,0.0417,0.0426,0.0411,0.0425,0.0389,0.0391,0.0311,0.0277,0.0174,0.0046,0.0041,-0.0083,-0.011,-0.018,-0.0181,-0.0187,-0.0187,-0.0186,-0.0186,-0.0186,-0.0186,-0.0186,0,0.0312,0.0344,0.038,0.0402,0.0454,0.0456,0.05,0.0491,0.0495,0.0515,0.0439,0.043,0.0281,0.0191,0.007,-0.0066,-0.0069,-0.0169,-0.0198,-0.0159,-0.0155,-0.019,-0.019,-0.0189,-0.0188,-0.0188,-0.0187,0,0.0328,0.0352,0.0402,0.0447,0.0467,0.05,0.056,0.0588,0.0582,0.0605,0.0602,0.0519,0.0397,0.0245,0.0071,-0.0028,-0.0164,-0.0211,-0.0146,-0.0171,-0.0241,-0.0237,-0.0292,-0.0292,-0.0293,-0.0293,-0.0294,0,0.0338,0.0367,0.0435,0.047,0.0494,0.0553,0.0599,0.0626,0.0659,0.0657,0.067,0.0571,0.0495,0.0259,0.0086,-0.014,-0.0176,-0.0242,-0.0252,-0.0229,-0.0252,-0.0247,-0.0242,-0.0295,-0.0295,-0.0295,-0.0295,0,0.0357,0.0381,0.0423,0.0501,0.0557,0.0632,0.0695,0.0732,0.0762,0.0763,0.073,0.0607,0.047,0.027,0.0095,-0.007,-0.0199,-0.0249,-0.0249,-0.0258,-0.0233,-0.0254,-0.0249,-0.0297,-0.0297,-0.0297,-0.0296,0,0.0367,0.0397,0.0454,0.0522,0.0601,0.0681,0.072,0.0766,0.0804,0.0801,0.0787,0.0637,0.0548,0.0306,0.0143,-0.0019,-0.0066,-0.012,-0.0128,-0.0128,-0.0068,-0.0011,-0.0026,0,0,0,0,0,0.0372,0.0408,0.0472,0.0551,0.0634,0.0687,0.0771,0.0806,0.0842,0.083,0.0814,0.0686,0.0447,0.0342,0.018,0.0115,-0.0105,-0.0081,-0.0173,-0.0307,-0.0305,-0.0264,0,0,0,0,0,0,0.0373,0.0431,0.0467,0.0567,0.0629,0.0728,0.0789,0.0816,0.0814,0.0818,0.0695,0.0641,0.0406,0.0537,0.0174,0.0124,0.0043,-0.0192,-0.0195,-0.0308,-0.0306,-0.0305,-0.0261,0,0,0,0,0]}]]